This is the latest recevied weather packets stored in our database for station/object SQ3MKP-13. If no packets are shown the sender has not sent any weather packets the latest 10 day(s).
| Time | Temp. | Humidity | Pressure | Rain* | Wind** | Luminosity | Snow |
|---|---|---|---|---|---|---|---|
| 1787981764 | 17.22° C | 94% | 1002.2 hPa | - | - | 37 W/m² | - |
| 1787981463 | 17.22° C | 94% | 1002.2 hPa | - | - | 33 W/m² | - |
| 1787981162 | 17.22° C | 94% | 1002.3 hPa | - | - | 31 W/m² | - |
| 1787980861 | 16.67° C | 94% | 1002.2 hPa | - | - | 43 W/m² | - |
| 1787980560 | 16.67° C | 94% | 1002.1 hPa | - | - | 50 W/m² | - |
| 1787980259 | 16.67° C | 94% | 1001.9 hPa | - | - | 31 W/m² | - |
| 1787979958 | 16.67° C | 94% | 1001.7 hPa | - | - | 13 W/m² | - |
| 1787979657 | 16.67° C | 94% | 1001.7 hPa | - | - | 11 W/m² | - |
| 1787979355 | 16.67° C | 93% | 1001.7 hPa | - | - | 9 W/m² | - |
| 1787979055 | 16.67° C | 93% | 1001.4 hPa | - | - | 12 W/m² | - |
| 1787978754 | 16.67° C | 93% | 1001.5 hPa | - | - | 10 W/m² | - |
| 1787978453 | 16.67° C | 93% | 1001.5 hPa | - | - | 5 W/m² | - |
| 1787978152 | 16.67° C | 93% | 1001.4 hPa | - | - | 5 W/m² | - |
| 1787977851 | 16.67° C | 93% | 1001.5 hPa | - | - | 4 W/m² | - |
| 1787977549 | 16.67° C | 92% | 1001.3 hPa | - | - | 2 W/m² | - |
| 1787977249 | 17.22° C | 92% | 1001.3 hPa | - | - | 2 W/m² | - |
| 1787976948 | 17.22° C | 91% | 1001.3 hPa | - | - | 1 W/m² | - |
| 1787976647 | 17.22° C | 90% | 1001.5 hPa | - | - | 1 W/m² | - |
| 1787976346 | 17.22° C | 90% | 1001.4 hPa | - | - | 1 W/m² | - |
| 1787976045 | 17.22° C | 90% | 1001.5 hPa | - | - | - | - |
| 1787975744 | 17.78° C | 90% | 1001.5 hPa | - | - | - | - |
| 1787975444 | 17.78° C | 90% | 1001.6 hPa | - | - | - | - |
| 1787975142 | 17.78° C | 90% | 1001.6 hPa | - | - | - | - |
| 1787974841 | 17.78° C | 90% | 1001.6 hPa | - | - | - | - |
| 1787974541 | 17.78° C | 90% | 1001.7 hPa | - | - | - | - |
* Rain since midnight (hover to see other rain measurements)
** Current wind speed in m/s (hover to see current wind gust speed)